Burns, OR

7:47 AM PDT on August 17, 2017 (GMT -0700)
Burns Municipal

Weather History for KBNO - December, 2012

Change the Weather History Date:

Tuesday, December 18, 2012

  Actual Average Record
Temperature  
Mean Temperature 9 °F 23 °F  
Max Temperature 26 °F 34 °F 50 °F (1979)
Min Temperature -9 °F 13 °F -9 °F (2012)
Degree Days  
Heating Degree Days 56 42  
Month to date heating degree days 607 724  
Since 1 July heating degree days 2281 2725  
Moisture  
Dew Point -1 °F    
Average Humidity 77    
Maximum Humidity 91    
Minimum Humidity 62    
Precipitation  
Precipitation 0.00 in 0.05 in 0.67 in (1961)
Month to date precipitation 1.11 0.89  
Year to date precipitation 9.71 10.26  
Sea Level Pressure  
Sea Level Pressure 30.07 in    
Wind  
Wind Speed 3 mph (WSW)    
Max Wind Speed 9 mph    
Max Gust Speed 12 mph    
Visibility 9 miles    
Events      
T = Trace of Precipitation, MM = Missing Value Source: NWS Daily Summary

Daily Weather History Graph

Daily Weather History Graph

Search for Another Location

Airport or City:

Trip Planner

Search our weather history database for the weather conditions in past years. The results will help you decide how hot, cold, wet, or windy it might be!

Date:

Astronomy

Dec. 18, 2012 Rise Set
Actual Time 7:24 AM PST 4:21 PM PST
Civil Twilight 6:51 AM PST 4:53 PM PST
Nautical Twilight 6:15 AM PST 5:30 PM PST
Astronomical Twilight 5:40 AM PST 6:05 PM PST
Moon 10:56 AM PST (12/18) 11:03 PM PST (12/18)
Length of Visible Light 10h 02m
Length of Day
8h 56m
Waxing Crescent, 36% of the Moon is Illuminated
Dec 18
Waxing Crescent
Dec 19
First Quarter
Dec 28
Full
Jan 4
Last Quarter
Jan 11
New

Hourly Weather History & Observations

Time (PST) Temp. Windchill Dew Point Humidity Pressure Visibility Wind Dir Wind Speed Gust Speed Precip Events Conditions
12:53 AM -4.0 °F -12.4 °F -7.1 °F 87% 30.06 in 10.0 mi NNW 3.5 mph - N/A   Clear
1:53 AM -2.9 °F - -6.0 °F 87% 30.07 in 10.0 mi Calm Calm - N/A   Clear
2:53 AM -2.0 °F -13.9 °F -6.0 °F 83% 30.08 in 10.0 mi WSW 5.8 mph - N/A   Clear
3:53 AM -2.9 °F -11.2 °F -7.1 °F 82% 30.06 in 10.0 mi NNW 3.5 mph - N/A   Clear
4:53 AM -2.0 °F -13.9 °F -5.1 °F 87% 30.06 in 10.0 mi South 5.8 mph - N/A   Overcast
5:53 AM -0.9 °F -14.1 °F -5.1 °F 83% 30.09 in 10.0 mi NNW 6.9 mph - N/A   Scattered Clouds
6:53 AM -4.0 °F -14.6 °F -8.0 °F 83% 30.13 in 10.0 mi NE 4.6 mph - N/A   Scattered Clouds
7:02 AM -5.8 °F - -9.4 °F 84% 29.90 in 9.0 mi Calm Calm - N/A   Mostly Cloudy
7:06 AM -4.0 °F - -9.4 °F 78% 29.90 in 1.8 mi Calm Calm - N/A   Haze
7:09 AM -4.0 °F - -7.6 °F 85% 29.90 in 0.8 mi Calm Calm - N/A   Mist
7:38 AM -5.8 °F -16.7 °F -9.4 °F 84% 29.91 in 1.5 mi WSW 4.6 mph - N/A   Overcast
7:40 AM -5.8 °F -14.5 °F -9.4 °F 84% 29.91 in 4.0 mi WSW 3.5 mph - N/A   Overcast
7:53 AM -2.9 °F -15.0 °F -7.1 °F 82% 30.14 in 10.0 mi SW 5.8 mph - N/A   Overcast
8:08 AM 1.4 °F -11.3 °F -2.2 °F 85% 29.92 in 10.0 mi West 6.9 mph - N/A   Overcast
8:53 AM 9.0 °F 2.4 °F 5.0 °F 84% 30.10 in 10.0 mi West 3.5 mph - N/A   Mostly Cloudy
9:53 AM 14.0 °F 8.2 °F 9.0 °F 80% 30.10 in 10.0 mi West 3.5 mph - N/A   Clear
10:53 AM 16.0 °F - 10.9 °F 81% 30.10 in 10.0 mi Calm Calm - N/A   Clear
11:53 AM 17.1 °F 10.0 °F 10.9 °F 77% 30.09 in 10.0 mi SE 4.6 mph - N/A   Clear
12:53 PM 21.0 °F 14.6 °F 14.0 °F 74% 30.07 in 10.0 mi South 4.6 mph - N/A   Clear
1:53 PM 24.1 °F - 15.1 °F 69% 30.04 in 10.0 mi Calm Calm - N/A   Clear
2:53 PM 24.1 °F 17.0 °F 14.0 °F 65% 30.05 in 10.0 mi SW 5.8 mph - N/A   Clear
3:53 PM 21.0 °F 10.6 °F 12.0 °F 68% 30.08 in 10.0 mi SW 9.2 mph - N/A   Clear
4:53 PM 10.9 °F 4.7 °F 7.0 °F 84% 30.12 in 10.0 mi WSW 3.5 mph - N/A   Clear
5:53 PM 3.0 °F -4.4 °F -0.9 °F 84% 30.16 in 10.0 mi NNE 3.5 mph - N/A   Clear
6:53 PM -0.0 °F - -2.9 °F 88% 30.19 in 10.0 mi Calm Calm - N/A   Clear
7:53 PM -0.0 °F - -2.0 °F 91% 30.21 in 10.0 mi Calm Calm - N/A   Clear
8:08 PM -0.4 °F - -2.2 °F 92% 29.96 in 1.8 mi Calm Calm - N/A   Clear
8:23 PM -2.2 °F - -7.6 °F 78% 29.96 in 3.0 mi Calm Calm - N/A   Clear
8:53 PM -0.0 °F - -2.9 °F 88% 30.18 in 10.0 mi Calm Calm - N/A   Clear
9:53 PM -5.1 °F - -9.0 °F 83% 30.20 in 10.0 mi Calm Calm - N/A   Partly Cloudy
10:53 PM -5.1 °F - -9.9 °F 80% 30.21 in 10.0 mi Calm Calm - N/A   Clear
11:53 PM -9.0 °F - -13.0 °F 83% 30.23 in 10.0 mi Calm Calm - N/A   Clear